| time (UTC) | temp F | wind direction | speed MPH | gust MPH | rain 1hr in | rain 24hr in | rain mn in | humidity % | barometer mb |
| 20260903182522 | 95 | 254 | 2.0 | 4.0 | 0.00 | 0.00 | 0.00 | 55 | 1017.6 |
| 20260903182019 | 95 | 258 | 4.0 | 6.0 | 0.00 | 0.00 | 0.00 | 53 | 1017.7 |
| 20260903181512 | 95 | 261 | 3.0 | 3.0 | 0.00 | 0.00 | 0.00 | 56 | 1017.8 |
| 20260903181011 | 95 | 278 | 3.0 | 5.0 | 0.00 | 0.00 | 0.00 | 54 | 1017.7 |
| 20260903180507 | 95 | 210 | 1.0 | 4.0 | 0.00 | 0.00 | 0.00 | 55 | 1017.8 |
| 20260903180006 | 95 | 249 | 3.0 | 3.0 | 0.00 | 0.00 | 0.00 | 55 | 1017.9 |
| 20260903175505 | 94 | 345 | 0.0 | 0.0 | 0.00 | 0.00 | 0.00 | 58 | 1018.2 |
| 20260903175004 | 93 | 277 | 1.0 | 4.0 | 0.00 | 0.00 | 0.00 | 58 | 1018.1 |
| 20260903174459 | 94 | 237 | 1.0 | 3.0 | 0.00 | 0.00 | 0.00 | 56 | 1018.2 |
| 20260903173954 | 93 | 286 | 0.0 | 4.0 | 0.00 | 0.00 | 0.00 | 58 | 1018.2 |
| 20260903173449 | 94 | 153 | 0.0 | 4.0 | 0.00 | 0.00 | 0.00 | 57 | 1018.1 |
| 20260903172945 | 93 | 235 | 3.0 | 4.0 | 0.00 | 0.00 | 0.00 | 58 | 1018.3 |
| 20260903172440 | 93 | 170 | 0.0 | 3.0 | 0.00 | 0.00 | 0.00 | 59 | 1018.3 |
| 20260903171935 | 92 | 144 | 3.0 | 4.0 | 0.00 | 0.00 | 0.00 | 60 | 1018.2 |
| 20260903171431 | 92 | 247 | 3.0 | 4.0 | 0.00 | 0.00 | 0.00 | 61 | 1018.4 |
| 20260903170931 | 92 | 217 | 2.0 | 3.0 | 0.00 | 0.00 | 0.00 | 61 | 1018.3 |
| 20260903170425 | 91 | 167 | 2.0 | 3.0 | 0.00 | 0.00 | 0.00 | 61 | 1018.3 |
| 20260903165924 | 91 | 148 | 2.0 | 3.0 | 0.00 | 0.00 | 0.00 | 62 | 1018.2 |
| 20260903165419 | 91 | 248 | 5.0 | 6.0 | 0.00 | 0.00 | 0.00 | 62 | 1018.6 |
| 20260903164919 | 91 | 279 | 2.0 | 3.0 | 0.00 | 0.00 | 0.00 | 63 | 1018.5 |
| 20260903164414 | 91 | 242 | 5.0 | 5.0 | 0.00 | 0.00 | 0.00 | 62 | 1018.8 |
| 20260903163914 | 91 | 253 | 4.0 | 5.0 | 0.00 | 0.00 | 0.00 | 64 | 1018.6 |
| 20260903163410 | 91 | 263 | 1.0 | 2.0 | 0.00 | 0.00 | 0.00 | 65 | 1018.6 |
| 20260903162906 | 90 | 236 | 3.0 | 3.0 | 0.00 | 0.00 | 0.00 | 66 | 1018.6 |
| 20260903162402 | 90 | 336 | 0.0 | 1.0 | 0.00 | 0.00 | 0.00 | 68 | 1018.8 |
| 20260903161857 | 89 | 224 | 1.0 | 2.0 | 0.00 | 0.00 | 0.00 | 68 | 1018.8 |
| 20260903161352 | 89 | 310 | 2.0 | 5.0 | 0.00 | 0.00 | 0.00 | 68 | 1018.9 |
| 20260903160849 | 89 | 212 | 3.0 | 5.0 | 0.00 | 0.00 | 0.00 | 67 | 1019.0 |
| 20260903160347 | 89 | 273 | 1.0 | 2.0 | 0.00 | 0.00 | 0.00 | 69 | 1018.8 |
| 20260903155846 | 89 | 48 | 1.0 | 6.0 | 0.00 | 0.00 | 0.00 | 69 | 1018.9 |
| 20260903155341 | 88 | 229 | 2.0 | 2.0 | 0.00 | 0.00 | 0.00 | 70 | 1018.9 |
| 20260903154836 | 89 | 146 | 3.0 | 4.0 | 0.00 | 0.00 | 0.00 | 71 | 1019.1 |
| 20260903154333 | 89 | 156 | 2.0 | 4.0 | 0.00 | 0.00 | 0.00 | 67 | 1019.1 |
| 20260903153827 | 89 | 271 | 2.0 | 2.0 | 0.00 | 0.00 | 0.00 | 67 | 1018.8 |
| 20260903153323 | 89 | 239 | 2.0 | 6.0 | 0.00 | 0.00 | 0.00 | 68 | 1019.0 |
| 20260903152820 | 89 | 284 | 1.0 | 5.0 | 0.00 | 0.00 | 0.00 | 69 | 1019.1 |
| 20260903152315 | 88 | 3 | 0.0 | 2.0 | 0.00 | 0.00 | 0.00 | 69 | 1019.0 |
| 20260903151810 | 88 | 235 | 2.0 | 3.0 | 0.00 | 0.00 | 0.00 | 70 | 1019.0 |
| 20260903151306 | 87 | 175 | 0.0 | 4.0 | 0.00 | 0.00 | 0.00 | 70 | 1019.0 |
| 20260903150805 | 87 | 278 | 2.0 | 4.0 | 0.00 | 0.00 | 0.00 | 70 | 1018.8 |
| 20260903150300 | 87 | 154 | 2.0 | 3.0 | 0.00 | 0.00 | 0.00 | 72 | 1019.1 |
| 20260903145755 | 87 | 236 | 1.0 | 5.0 | 0.00 | 0.00 | 0.00 | 72 | 1018.9 |
| 20260903145250 | 87 | 168 | 1.0 | 2.0 | 0.00 | 0.00 | 0.00 | 73 | 1019.1 |
| 20260903144749 | 87 | 22 | 0.0 | 4.0 | 0.00 | 0.00 | 0.00 | 72 | 1019.0 |
| 20260903144245 | 87 | 29 | 1.0 | 3.0 | 0.00 | 0.00 | 0.00 | 72 | 1018.9 |
| 20260903143740 | 87 | 299 | 3.0 | 4.0 | 0.00 | 0.00 | 0.00 | 72 | 1018.6 |
| 20260903143237 | 86 | 233 | 2.0 | 3.0 | 0.00 | 0.00 | 0.00 | 73 | 1018.8 |
| 20260903142732 | 86 | 209 | 2.0 | 5.0 | 0.00 | 0.00 | 0.00 | 73 | 1018.8 |
| 20260903142228 | 86 | 156 | 2.0 | 3.0 | 0.00 | 0.00 | 0.00 | 72 | 1018.7 |
| 20260903141724 | 86 | 237 | 3.0 | 5.0 | 0.00 | 0.00 | 0.00 | 72 | 1018.8 |
| 20260903141219 | 86 | 253 | 2.0 | 3.0 | 0.00 | 0.00 | 0.00 | 72 | 1018.5 |
| 20260903140714 | 85 | 207 | 2.0 | 2.0 | 0.00 | 0.00 | 0.00 | 73 | 1018.4 |
| 20260903140209 | 85 | 260 | 0.0 | 2.0 | 0.00 | 0.00 | 0.00 | 74 | 1018.4 |
| 20260903135705 | 85 | 134 | 0.0 | 2.0 | 0.00 | 0.00 | 0.00 | 74 | 1018.5 |
| 20260903135200 | 84 | 339 | 0.0 | 2.0 | 0.00 | 0.00 | 0.00 | 78 | 1018.3 |
| 20260903134658 | 83 | 113 | 1.0 | 2.0 | 0.00 | 0.00 | 0.00 | 79 | 1018.4 |
| 20260903134155 | 82 | 147 | 0.0 | 1.0 | 0.00 | 0.00 | 0.00 | 79 | 1018.3 |
| 20260903133652 | 82 | 190 | 1.0 | 1.0 | 0.00 | 0.00 | 0.00 | 81 | 1018.3 |
| 20260903133148 | 82 | 154 | 0.0 | 0.0 | 0.00 | 0.00 | 0.00 | 84 | 1018.5 |
| 20260903132643 | 81 | 154 | 0.0 | 2.0 | 0.00 | 0.00 | 0.00 | 83 | 1018.5 |
| 20260903132143 | 81 | 279 | 0.0 | 1.0 | 0.00 | 0.00 | 0.00 | 84 | 1018.7 |
| 20260903131637 | 80 | 159 | 0.0 | 0.0 | 0.00 | 0.00 | 0.00 | 86 | 1018.6 |
| 20260903131137 | 79 | 345 | 0.0 | 1.0 | 0.00 | 0.00 | 0.00 | 87 | 1018.8 |
| 20260903130632 | 79 | 159 | 0.0 | 2.0 | 0.00 | 0.00 | 0.00 | 89 | 1018.9 |
| 20260903130126 | 78 | 49 | 0.0 | 0.0 | 0.00 | 0.00 | 0.00 | 90 | 1018.7 |
| 20260903125624 | 77 | 184 | 0.0 | 0.0 | 0.00 | 0.00 | 0.00 | 94 | 1018.9 |
| 20260903125120 | 77 | 174 | 0.0 | 1.0 | 0.00 | 0.00 | 0.00 | 95 | 1019.1 |
| 20260903124619 | 76 | 235 | 0.0 | 0.0 | 0.00 | 0.00 | 0.00 | 98 | 1019.1 |
| 20260903124114 | 76 | 172 | 0.0 | 2.0 | 0.00 | 0.00 | 0.00 | 99 | 1019.2 |
| 20260903123614 | 76 | 184 | 0.0 | 2.0 | 0.00 | 0.00 | 0.00 | 99 | 1019.2 |
| 20260903123112 | 75 | 153 | 2.0 | 2.0 | 0.00 | 0.00 | 0.00 | 99 | 1019.1 |
| 20260903122607 | 75 | 159 | 0.0 | 1.0 | 0.00 | 0.00 | 0.00 | 99 | 1018.9 |
| 20260903122106 | 75 | 167 | 0.0 | 1.0 | 0.00 | 0.00 | 0.00 | 99 | 1018.9 |
| 20260903121601 | 75 | 239 | 0.0 | 1.0 | 0.00 | 0.00 | 0.00 | 99 | 1019.3 |
| 20260903121056 | 75 | 172 | 0.0 | 1.0 | 0.00 | 0.00 | 0.00 | 99 | 1019.0 |
| 20260903120555 | 74 | 176 | 0.0 | 1.0 | 0.00 | 0.00 | 0.00 | 99 | 1019.1 |
| 20260903120050 | 74 | 162 | 1.0 | 1.0 | 0.00 | 0.00 | 0.00 | 99 | 1018.8 |
| 20260903115548 | 74 | 174 | 1.0 | 1.0 | 0.00 | 0.00 | 0.00 | 99 | 1018.9 |
| 20260903115044 | 74 | 143 | 0.0 | 0.0 | 0.00 | 0.00 | 0.00 | 99 | 1019.0 |
| 20260903114538 | 74 | 164 | 0.0 | 1.0 | 0.00 | 0.00 | 0.00 | 99 | 1019.0 |
| 20260903114034 | 73 | 155 | 0.0 | 1.0 | 0.00 | 0.00 | 0.00 | 99 | 1018.9 |
| 20260903113530 | 73 | 159 | 0.0 | 0.0 | 0.00 | 0.00 | 0.00 | 99 | 1018.8 |
| 20260903113026 | 73 | 147 | 0.0 | 0.0 | 0.00 | 0.00 | 0.00 | 99 | 1018.8 |
| 20260903112521 | 73 | 147 | 0.0 | 0.0 | 0.00 | 0.00 | 0.00 | 99 | 1018.6 |
| 20260903112021 | 73 | 164 | 0.0 | 1.0 | 0.00 | 0.00 | 0.00 | 99 | 1018.8 |
| 20260903111520 | 73 | 160 | 1.0 | 1.0 | 0.00 | 0.00 | 0.00 | 99 | 1018.9 |
| 20260903111017 | 73 | 159 | 0.0 | 1.0 | 0.00 | 0.00 | 0.00 | 99 | 1018.6 |
| 20260903110513 | 73 | 133 | 0.0 | 0.0 | 0.00 | 0.00 | 0.00 | 99 | 1018.7 |
| 20260903110007 | 73 | 159 | 0.0 | 0.0 | 0.00 | 0.00 | 0.00 | 99 | 1018.3 |
| 20260903105501 | 73 | 149 | 1.0 | 2.0 | 0.00 | 0.00 | 0.00 | 99 | 1018.4 |
| 20260903104956 | 73 | 147 | 1.0 | 1.0 | 0.00 | 0.00 | 0.00 | 99 | 1018.5 |
| 20260903104455 | 73 | 161 | 0.0 | 1.0 | 0.00 | 0.00 | 0.00 | 99 | 1018.3 |
| 20260903103952 | 73 | 96 | 0.0 | 1.0 | 0.00 | 0.00 | 0.00 | 99 | 1018.5 |
| 20260903103448 | 73 | 146 | 0.0 | 1.0 | 0.00 | 0.00 | 0.00 | 99 | 1018.4 |
| 20260903102943 | 73 | 145 | 0.0 | 1.0 | 0.00 | 0.00 | 0.00 | 99 | 1018.4 |
| 20260903102439 | 73 | 147 | 1.0 | 2.0 | 0.00 | 0.00 | 0.00 | 99 | 1018.4 |
| 20260903101937 | 73 | 124 | 1.0 | 1.0 | 0.00 | 0.00 | 0.00 | 99 | 1018.5 |
| 20260903101432 | 73 | 95 | 1.0 | 1.0 | 0.00 | 0.00 | 0.00 | 99 | 1018.4 |
| 20260903100928 | 73 | 160 | 0.0 | 0.0 | 0.00 | 0.00 | 0.00 | 99 | 1018.5 |
| 20260903100423 | 73 | 177 | 1.0 | 2.0 | 0.00 | 0.00 | 0.00 | 99 | 1018.4 |
| 20260903095920 | 73 | 213 | 0.0 | 3.0 | 0.00 | 0.00 | 0.00 | 99 | 1018.5 |
| 20260903095415 | 73 | 188 | 1.0 | 2.0 | 0.00 | 0.00 | 0.00 | 99 | 1018.3 |
| 20260903094910 | 74 | 163 | 1.0 | 2.0 | 0.00 | 0.00 | 0.00 | 99 | 1018.5 |
| 20260903094409 | 74 | 151 | 2.0 | 2.0 | 0.00 | 0.00 | 0.00 | 99 | 1018.3 |
| 20260903093905 | 74 | 159 | 0.0 | 1.0 | 0.00 | 0.00 | 0.00 | 99 | 1018.3 |
| 20260903093354 | 74 | 92 | 0.0 | 0.0 | 0.00 | 0.00 | 0.00 | 99 | 1018.4 |
| 20260903092850 | 74 | 156 | 0.0 | 1.0 | 0.00 | 0.00 | 0.00 | 99 | 1018.3 |
| 20260903092344 | 74 | 147 | 0.0 | 0.0 | 0.00 | 0.00 | 0.00 | 99 | 1018.3 |
| 20260903091843 | 74 | 59 | 0.0 | 0.0 | 0.00 | 0.00 | 0.00 | 99 | 1018.3 |
| 20260903091342 | 74 | 184 | 0.0 | 0.0 | 0.00 | 0.00 | 0.00 | 99 | 1018.2 |
| 20260903090837 | 74 | 165 | 0.0 | 0.0 | 0.00 | 0.00 | 0.00 | 99 | 1018.1 |
| 20260903090332 | 74 | 145 | 1.0 | 1.0 | 0.00 | 0.00 | 0.00 | 99 | 1018.2 |
| 20260903085830 | 74 | 152 | 2.0 | 2.0 | 0.00 | 0.00 | 0.00 | 99 | 1017.8 |
| 20260903085330 | 74 | 135 | 1.0 | 2.0 | 0.00 | 0.00 | 0.00 | 98 | 1017.9 |
| 20260903084829 | 74 | 149 | 1.0 | 2.0 | 0.00 | 0.00 | 0.00 | 99 | 1017.8 |
| 20260903084328 | 74 | 95 | 0.0 | 1.0 | 0.00 | 0.00 | 0.00 | 98 | 1017.8 |
| 20260903083823 | 74 | 79 | 0.0 | 1.0 | 0.00 | 0.00 | 0.00 | 98 | 1017.9 |
| 20260903083319 | 74 | 150 | 0.0 | 1.0 | 0.00 | 0.00 | 0.00 | 98 | 1017.8 |
| 20260903082818 | 74 | 157 | 0.0 | 1.0 | 0.00 | 0.00 | 0.00 | 98 | 1017.8 |
| 20260903082313 | 74 | 85 | 0.0 | 0.0 | 0.00 | 0.00 | 0.00 | 98 | 1017.8 |
| 20260903081809 | 74 | 123 | 0.0 | 1.0 | 0.00 | 0.00 | 0.00 | 98 | 1017.9 |
| 20260903081304 | 74 | 85 | 0.0 | 1.0 | 0.00 | 0.00 | 0.00 | 98 | 1018.0 |
| 20260903080801 | 74 | 85 | 0.0 | 1.0 | 0.00 | 0.00 | 0.00 | 98 | 1018.0 |
| 20260903080258 | 74 | 148 | 1.0 | 1.0 | 0.00 | 0.00 | 0.00 | 98 | 1018.1 |
| 20260903075757 | 74 | 161 | 0.0 | 1.0 | 0.00 | 0.00 | 0.00 | 98 | 1018.2 |
| 20260903075252 | 74 | 124 | 1.0 | 1.0 | 0.00 | 0.00 | 0.00 | 98 | 1018.1 |
| 20260903074751 | 74 | 149 | 1.0 | 2.0 | 0.00 | 0.00 | 0.00 | 98 | 1018.1 |
| 20260903074246 | 75 | 153 | 1.0 | 2.0 | 0.00 | 0.00 | 0.00 | 98 | 1018.3 |
| 20260903073741 | 75 | 151 | 1.0 | 2.0 | 0.00 | 0.00 | 0.00 | 98 | 1018.2 |
| 20260903073237 | 75 | 157 | 1.0 | 2.0 | 0.00 | 0.00 | 0.00 | 98 | 1018.1 |
| 20260903072733 | 75 | 170 | 1.0 | 2.0 | 0.00 | 0.00 | 0.00 | 98 | 1018.3 |
| 20260903072229 | 75 | 158 | 1.0 | 2.0 | 0.00 | 0.00 | 0.00 | 98 | 1018.3 |
| 20260903071725 | 75 | 129 | 2.0 | 2.0 | 0.00 | 0.00 | 0.00 | 98 | 1018.2 |
| 20260903071221 | 75 | 108 | 0.0 | 1.0 | 0.00 | 0.00 | 0.00 | 98 | 1018.2 |
| 20260903070720 | 75 | 143 | 0.0 | 1.0 | 0.00 | 0.00 | 0.00 | 98 | 1018.4 |
| 20260903070216 | 75 | 150 | 1.0 | 2.0 | 0.00 | 0.00 | 0.00 | 98 | 1018.2 |
| 20260903065711 | 75 | 154 | 0.0 | 1.0 | 0.00 | 0.00 | 0.00 | 98 | 1018.3 |
| 20260903065205 | 75 | 163 | 2.0 | 2.0 | 0.00 | 0.00 | 0.00 | 98 | 1018.2 |
| 20260903064704 | 75 | 168 | 1.0 | 2.0 | 0.00 | 0.00 | 0.00 | 98 | 1018.4 |
| 20260903064200 | 75 | 210 | 0.0 | 0.0 | 0.00 | 0.00 | 0.00 | 98 | 1018.4 |
| 20260903063655 | 75 | 245 | 1.0 | 1.0 | 0.00 | 0.00 | 0.00 | 97 | 1018.4 |
| 20260903063149 | 75 | 158 | 1.0 | 2.0 | 0.00 | 0.00 | 0.00 | 97 | 1018.5 |
| 20260903062646 | 75 | 159 | 0.0 | 0.0 | 0.00 | 0.00 | 0.00 | 97 | 1018.4 |
| 20260903062140 | 75 | 159 | 0.0 | 0.0 | 0.00 | 0.00 | 0.00 | 97 | 1018.5 |
| 20260903061635 | 75 | 171 | 0.0 | 1.0 | 0.00 | 0.00 | 0.00 | 97 | 1018.4 |
| 20260903061134 | 75 | 151 | 1.0 | 2.0 | 0.00 | 0.00 | 0.00 | 97 | 1018.6 |
| 20260903060630 | 75 | 163 | 0.0 | 1.0 | 0.00 | 0.00 | 0.00 | 97 | 1018.6 |
| 20260903060125 | 75 | 184 | 0.0 | 0.0 | 0.00 | 0.00 | 0.00 | 97 | 1018.4 |
| 20260903055622 | 75 | 184 | 0.0 | 0.0 | 0.00 | 0.00 | 0.00 | 97 | 1018.5 |
| 20260903055121 | 75 | 185 | 0.0 | 2.0 | 0.00 | 0.00 | 0.00 | 97 | 1018.6 |
| 20260903054616 | 76 | 147 | 2.0 | 2.0 | 0.00 | 0.00 | 0.00 | 96 | 1018.7 |
| 20260903054112 | 76 | 142 | 1.0 | 1.0 | 0.00 | 0.00 | 0.00 | 96 | 1018.8 |
| 20260903053607 | 76 | 149 | 1.0 | 1.0 | 0.00 | 0.00 | 0.00 | 95 | 1019.0 |
| 20260903053103 | 76 | 138 | 1.0 | 3.0 | 0.00 | 0.00 | 0.00 | 95 | 1018.8 |
| 20260903052559 | 76 | 172 | 1.0 | 2.0 | 0.00 | 0.00 | 0.00 | 95 | 1018.9 |
| 20260903052054 | 76 | 176 | 2.0 | 2.0 | 0.00 | 0.00 | 0.00 | 95 | 1018.8 |
| 20260903051549 | 76 | 252 | 1.0 | 2.0 | 0.00 | 0.00 | 0.00 | 95 | 1018.8 |
| 20260903051044 | 76 | 219 | 1.0 | 1.0 | 0.00 | 0.00 | 0.00 | 95 | 1018.8 |
| 20260903050544 | 76 | 162 | 0.0 | 3.0 | 0.00 | 0.00 | 0.00 | 95 | 1018.8 |
| 20260903050039 | 76 | 209 | 0.0 | 2.0 | 0.00 | 0.00 | 0.00 | 95 | 1018.9 |
| 20260903045538 | 76 | 181 | 0.0 | 2.0 | 0.00 | 0.00 | 0.00 | 95 | 1018.9 |
| 20260903045036 | 77 | 186 | 1.0 | 2.0 | 0.00 | 0.00 | 0.00 | 94 | 1018.7 |
| 20260903044531 | 77 | 138 | 2.0 | 2.0 | 0.00 | 0.00 | 0.00 | 94 | 1018.9 |
| 20260903044026 | 77 | 162 | 1.0 | 2.0 | 0.00 | 0.00 | 0.00 | 94 | 1019.0 |
| 20260903043522 | 77 | 168 | 1.0 | 2.0 | 0.00 | 0.00 | 0.00 | 94 | 1018.9 |
| 20260903043022 | 77 | 272 | 0.0 | 2.0 | 0.00 | 0.00 | 0.00 | 95 | 1018.9 |
| 20260903042522 | 77 | 203 | 1.0 | 2.0 | 0.00 | 0.00 | 0.00 | 95 | 1018.9 |
| 20260903042018 | 77 | 190 | 1.0 | 1.0 | 0.00 | 0.00 | 0.00 | 95 | 1018.9 |
| 20260903041514 | 77 | 220 | 0.0 | 0.0 | 0.00 | 0.00 | 0.00 | 95 | 1018.8 |
| 20260903041009 | 77 | 266 | 0.0 | 0.0 | 0.00 | 0.00 | 0.00 | 96 | 1018.7 |
| 20260903040508 | 77 | 92 | 0.0 | 1.0 | 0.00 | 0.00 | 0.00 | 96 | 1018.4 |
| 20260903040008 | 77 | 187 | 0.0 | 0.0 | 0.00 | 0.00 | 0.00 | 96 | 1018.4 |
| 20260903035500 | 77 | 145 | 2.0 | 2.0 | 0.00 | 0.00 | 0.00 | 96 | 1018.6 |
| 20260903034955 | 77 | 177 | 0.0 | 0.0 | 0.00 | 0.00 | 0.00 | 96 | 1018.8 |
| 20260903034450 | 77 | 156 | 0.0 | 1.0 | 0.00 | 0.00 | 0.00 | 96 | 1018.7 |
| 20260903033949 | 77 | 147 | 0.0 | 1.0 | 0.00 | 0.00 | 0.00 | 96 | 1018.4 |
| 20260903033445 | 77 | 223 | 0.0 | 2.0 | 0.00 | 0.00 | 0.00 | 95 | 1018.4 |
| 20260903032940 | 77 | 134 | 0.0 | 0.0 | 0.00 | 0.00 | 0.00 | 95 | 1018.2 |
| 20260903032436 | 77 | 154 | 0.0 | 0.0 | 0.00 | 0.00 | 0.00 | 95 | 1018.3 |
| 20260903031931 | 77 | 148 | 1.0 | 2.0 | 0.00 | 0.00 | 0.00 | 95 | 1018.2 |
| 20260903031431 | 77 | 144 | 1.0 | 1.0 | 0.00 | 0.00 | 0.00 | 95 | 1018.5 |
| 20260903030926 | 77 | 67 | 0.0 | 0.0 | 0.00 | 0.00 | 0.00 | 95 | 1018.6 |
| 20260903030422 | 77 | 136 | 0.0 | 1.0 | 0.00 | 0.00 | 0.00 | 95 | 1018.4 |
| 20260903025918 | 77 | 159 | 0.0 | 0.0 | 0.00 | 0.00 | 0.00 | 95 | 1018.4 |
| 20260903025413 | 77 | 127 | 1.0 | 2.0 | 0.00 | 0.00 | 0.00 | 94 | 1018.4 |
| 20260903024908 | 77 | 147 | 0.0 | 0.0 | 0.00 | 0.00 | 0.00 | 94 | 1018.7 |
| 20260903024402 | 77 | 127 | 1.0 | 1.0 | 0.00 | 0.00 | 0.00 | 94 | 1018.5 |
| 20260903023857 | 77 | 142 | 1.0 | 1.0 | 0.00 | 0.00 | 0.00 | 94 | 1018.7 |
| 20260903023353 | 77 | 165 | 0.0 | 0.0 | 0.00 | 0.00 | 0.00 | 94 | 1018.6 |
| 20260903022848 | 77 | 79 | 0.0 | 1.0 | 0.00 | 0.00 | 0.00 | 93 | 1018.6 |
| 20260903022347 | 78 | 125 | 1.0 | 2.0 | 0.00 | 0.00 | 0.00 | 93 | 1018.8 |
| 20260903021846 | 78 | 173 | 1.0 | 2.0 | 0.00 | 0.00 | 0.00 | 92 | 1018.7 |
| 20260903021342 | 78 | 170 | 1.0 | 2.0 | 0.00 | 0.00 | 0.00 | 92 | 1018.7 |
| 20260903020841 | 78 | 187 | 0.0 | 1.0 | 0.00 | 0.00 | 0.00 | 92 | 1018.9 |
| 20260903020337 | 78 | 184 | 1.0 | 2.0 | 0.00 | 0.00 | 0.00 | 92 | 1018.9 |
| 20260903015831 | 78 | 174 | 1.0 | 2.0 | 0.00 | 0.00 | 0.00 | 91 | 1019.0 |
| 20260903015326 | 78 | 150 | 0.0 | 1.0 | 0.00 | 0.00 | 0.00 | 91 | 1019.1 |
| 20260903014822 | 78 | 203 | 1.0 | 2.0 | 0.00 | 0.00 | 0.00 | 91 | 1019.0 |
| 20260903014316 | 78 | 187 | 0.0 | 1.0 | 0.00 | 0.00 | 0.00 | 91 | 1019.1 |
| 20260903013811 | 79 | 172 | 0.0 | 1.0 | 0.00 | 0.00 | 0.00 | 91 | 1019.0 |
| 20260903013309 | 79 | 140 | 0.0 | 2.0 | 0.00 | 0.00 | 0.00 | 91 | 1019.0 |
| 20260903012808 | 79 | 158 | 1.0 | 1.0 | 0.00 | 0.00 | 0.00 | 90 | 1019.1 |
| 20260903012258 | 80 | 155 | 1.0 | 1.0 | 0.00 | 0.00 | 0.00 | 89 | 1019.0 |
| 20260903011757 | 80 | 178 | 1.0 | 2.0 | 0.00 | 0.00 | 0.00 | 89 | 1019.2 |
| 20260903011256 | 80 | 202 | 2.0 | 2.0 | 0.00 | 0.00 | 0.00 | 88 | 1019.0 |
| 20260903010752 | 80 | 123 | 0.0 | 2.0 | 0.00 | 0.00 | 0.00 | 87 | 1018.9 |
| 20260903010247 | 81 | 143 | 0.0 | 1.0 | 0.00 | 0.00 | 0.00 | 87 | 1018.7 |
| 20260903005746 | 81 | 138 | 1.0 | 2.0 | 0.00 | 0.00 | 0.00 | 86 | 1018.9 |
| 20260903005241 | 81 | 159 | 0.0 | 2.0 | 0.00 | 0.00 | 0.00 | 86 | 1019.0 |
| 20260903004736 | 81 | 132 | 1.0 | 2.0 | 0.00 | 0.00 | 0.00 | 85 | 1018.6 |
| 20260903004232 | 81 | 235 | 0.0 | 0.0 | 0.00 | 0.00 | 0.00 | 86 | 1018.8 |
| 20260903003727 | 81 | 162 | 1.0 | 2.0 | 0.00 | 0.00 | 0.00 | 86 | 1018.6 |
| 20260903003223 | 81 | 272 | 0.0 | 1.0 | 0.00 | 0.00 | 0.00 | 86 | 1018.5 |
| 20260903002717 | 81 | 133 | 1.0 | 2.0 | 0.00 | 0.00 | 0.00 | 85 | 1018.5 |
| 20260903002211 | 82 | 119 | 2.0 | 2.0 | 0.00 | 0.00 | 0.00 | 85 | 1018.4 |
| 20260903001707 | 82 | 159 | 0.0 | 0.0 | 0.00 | 0.00 | 0.00 | 82 | 1018.5 |
| 20260903001201 | 82 | 232 | 0.0 | 0.0 | 0.00 | 0.00 | 0.00 | 82 | 1018.7 |
| 20260903000657 | 82 | 159 | 0.0 | 0.0 | 0.00 | 0.00 | 0.00 | 82 | 1018.6 |
| 20260903000155 | 83 | 123 | 1.0 | 1.0 | 0.00 | 0.00 | 0.00 | 81 | 1018.5 |
| 20260902235654 | 83 | 133 | 1.0 | 2.0 | 0.00 | 0.00 | 0.00 | 80 | 1018.7 |
| 20260902235144 | 83 | 166 | 1.0 | 1.0 | 0.00 | 0.00 | 0.00 | 80 | 1018.5 |
| 20260902234643 | 83 | 111 | 1.0 | 2.0 | 0.00 | 0.00 | 0.00 | 80 | 1018.5 |
| 20260902234142 | 84 | 105 | 2.0 | 3.0 | 0.00 | 0.00 | 0.00 | 79 | 1018.4 |
| 20260902233638 | 84 | 127 | 2.0 | 2.0 | 0.00 | 0.00 | 0.00 | 79 | 1018.3 |
| 20260902233137 | 84 | 242 | 0.0 | 0.0 | 0.00 | 0.00 | 0.00 | 80 | 1018.1 |
| 20260902232636 | 84 | 125 | 2.0 | 2.0 | 0.00 | 0.00 | 0.00 | 80 | 1018.6 |
| 20260902232136 | 85 | 129 | 1.0 | 2.0 | 0.00 | 0.00 | 0.00 | 79 | 1018.5 |
| 20260902231636 | 85 | 94 | 1.0 | 1.0 | 0.00 | 0.00 | 0.00 | 78 | 1018.8 |
| 20260902231130 | 85 | 20 | 1.0 | 2.0 | 0.00 | 0.00 | 0.00 | 78 | 1018.8 |
| 20260902230626 | 85 | 55 | 0.0 | 0.0 | 0.00 | 0.00 | 0.00 | 78 | 1019.2 |
| 20260902230124 | 85 | 229 | 0.0 | 3.0 | 0.00 | 0.00 | 0.00 | 77 | 1019.3 |
| 20260902225620 | 85 | 190 | 2.0 | 2.0 | 0.00 | 0.00 | 0.00 | 78 | 1019.0 |
| 20260902225119 | 84 | 232 | 0.0 | 2.0 | 0.00 | 0.00 | 0.00 | 78 | 1018.7 |
| 20260902224618 | 84 | 248 | 0.0 | 1.0 | 0.00 | 0.00 | 0.00 | 78 | 1018.6 |
| 20260902224114 | 84 | 147 | 0.0 | 2.0 | 0.00 | 0.00 | 0.00 | 77 | 1018.5 |
| 20260902223610 | 84 | 178 | 0.0 | 2.0 | 0.00 | 0.00 | 0.00 | 76 | 1019.0 |
| 20260902223109 | 85 | 358 | 2.0 | 2.0 | 0.00 | 0.00 | 0.00 | 74 | 1019.0 |
| 20260902222608 | 85 | 340 | 0.0 | 1.0 | 0.00 | 0.00 | 0.00 | 73 | 1019.1 |
| 20260902222107 | 85 | 119 | 0.0 | 0.0 | 0.00 | 0.00 | 0.00 | 72 | 1019.2 |
| 20260902221601 | 85 | 194 | 0.0 | 1.0 | 0.00 | 0.00 | 0.00 | 70 | 1019.3 |
| 20260902221056 | 85 | 140 | 1.0 | 2.0 | 0.00 | 0.00 | 0.00 | 69 | 1019.3 |
| 20260902220552 | 86 | 57 | 1.0 | 3.0 | 0.00 | 0.00 | 0.00 | 69 | 1018.8 |
| 20260902220046 | 86 | 141 | 2.0 | 2.0 | 0.00 | 0.00 | 0.00 | 67 | 1018.7 |
| 20260902215542 | 87 | 35 | 1.0 | 1.0 | 0.00 | 0.00 | 0.00 | 66 | 1018.8 |
| 20260902215037 | 87 | 255 | 2.0 | 3.0 | 0.00 | 0.00 | 0.00 | 65 | 1019.0 |
| 20260902214532 | 87 | 20 | 2.0 | 3.0 | 0.00 | 0.00 | 0.00 | 65 | 1018.9 |
| 20260902214031 | 87 | 329 | 0.0 | 3.0 | 0.00 | 0.00 | 0.00 | 65 | 1018.8 |
| 20260902213527 | 88 | 226 | 1.0 | 6.0 | 0.00 | 0.00 | 0.00 | 64 | 1018.9 |
| 20260902213026 | 89 | 227 | 7.0 | 11.0 | 0.00 | 0.00 | 0.00 | 62 | 1018.8 |
| 20260902212522 | 89 | 155 | 4.0 | 5.0 | 0.00 | 0.00 | 0.00 | 62 | 1018.8 |
| 20260902212018 | 90 | 210 | 5.0 | 6.0 | 0.00 | 0.00 | 0.00 | 61 | 1018.6 |
| 20260902211514 | 90 | 26 | 1.0 | 5.0 | 0.00 | 0.00 | 0.00 | 63 | 1018.5 |
| 20260902211009 | 91 | 78 | 2.0 | 5.0 | 0.00 | 0.00 | 0.00 | 62 | 1018.5 |
| 20260902210508 | 91 | 176 | 1.0 | 5.0 | 0.00 | 0.00 | 0.00 | 62 | 1018.5 |
| 20260902210008 | 92 | 299 | 0.0 | 4.0 | 0.00 | 0.00 | 0.00 | 62 | 1018.4 |
| 20260902205502 | 93 | 277 | 2.0 | 3.0 | 0.00 | 0.00 | 0.00 | 60 | 1018.2 |
| 20260902204958 | 94 | 247 | 3.0 | 4.0 | 0.00 | 0.00 | 0.00 | 56 | 1018.5 |
| 20260902204457 | 94 | 282 | 4.0 | 10.0 | 0.00 | 0.00 | 0.00 | 56 | 1018.3 |
| 20260902203952 | 94 | 293 | 2.0 | 2.0 | 0.00 | 0.00 | 0.00 | 57 | 1018.4 |
| 20260902203448 | 95 | 25 | 3.0 | 8.0 | 0.00 | 0.00 | 0.00 | 55 | 1018.6 |
| 20260902202946 | 95 | 218 | 3.0 | 5.0 | 0.00 | 0.00 | 0.00 | 54 | 1018.5 |
| 20260902202443 | 95 | 344 | 2.0 | 5.0 | 0.00 | 0.00 | 0.00 | 54 | 1018.3 |
| 20260902201939 | 95 | 270 | 2.0 | 3.0 | 0.00 | 0.00 | 0.00 | 53 | 1018.3 |
| 20260902201434 | 96 | 336 | 2.0 | 4.0 | 0.00 | 0.00 | 0.00 | 52 | 1018.5 |
| 20260902200934 | 96 | 285 | 2.0 | 2.0 | 0.00 | 0.00 | 0.00 | 51 | 1018.7 |
| 20260902200430 | 96 | 315 | 0.0 | 2.0 | 0.00 | 0.00 | 0.00 | 51 | 1018.6 |
| 20260902195925 | 95 | 259 | 1.0 | 7.0 | 0.00 | 0.00 | 0.00 | 49 | 1018.5 |
| 20260902195420 | 96 | 281 | 5.0 | 6.0 | 0.00 | 0.00 | 0.00 | 49 | 1018.7 |
| 20260902194914 | 96 | 277 | 3.0 | 7.0 | 0.00 | 0.00 | 0.00 | 50 | 1018.6 |
| 20260902194414 | 95 | 266 | 6.0 | 6.0 | 0.00 | 0.00 | 0.00 | 51 | 1018.4 |
| 20260902193909 | 95 | 202 | 1.0 | 2.0 | 0.00 | 0.00 | 0.00 | 52 | 1018.6 |
| 20260902193405 | 96 | 265 | 0.0 | 3.0 | 0.00 | 0.00 | 0.00 | 50 | 1018.5 |
| 20260902192903 | 96 | 186 | 1.0 | 6.0 | 0.00 | 0.00 | 0.00 | 51 | 1018.3 |
| 20260902192403 | 96 | 243 | 5.0 | 5.0 | 0.00 | 0.00 | 0.00 | 51 | 1018.4 |
| 20260902191856 | 96 | 320 | 2.0 | 4.0 | 0.00 | 0.00 | 0.00 | 50 | 1018.5 |
| 20260902191352 | 96 | 159 | 0.0 | 3.0 | 0.00 | 0.00 | 0.00 | 52 | 1018.7 |
| 20260902190847 | 95 | 174 | 3.0 | 5.0 | 0.00 | 0.00 | 0.00 | 52 | 1018.4 |
| 20260902190347 | 95 | 9 | 3.0 | 3.0 | 0.00 | 0.00 | 0.00 | 52 | 1018.6 |
| 20260902185843 | 96 | 331 | 2.0 | 3.0 | 0.00 | 0.00 | 0.00 | 52 | 1018.8 |
| 20260902185338 | 94 | 261 | 1.0 | 3.0 | 0.00 | 0.00 | 0.00 | 54 | 1018.9 |
| 20260902184834 | 94 | 272 | 0.0 | 1.0 | 0.00 | 0.00 | 0.00 | 56 | 1018.8 |
| 20260902184329 | 94 | 157 | 0.0 | 3.0 | 0.00 | 0.00 | 0.00 | 54 | 1018.9 |
| 20260902183825 | 94 | 194 | 2.0 | 5.0 | 0.00 | 0.00 | 0.00 | 55 | 1019.1 |
| 20260902183321 | 95 | 281 | 4.0 | 6.0 | 0.00 | 0.00 | 0.00 | 53 | 1019.2 |
| 20260902182817 | 95 | 190 | 1.0 | 2.0 | 0.00 | 0.00 | 0.00 | 54 | 1019.2 |